WXM80 ListenWXM80 Stop

You find our weather info also at:

UK Metoffice

WeatherCloud

Weather Underground

Northeastern Weather Network

AWEKAS

Citizen Weather Observer Program (CWOP)

HAMweather, WeatherForYou, PWS Weather


Weather Underground History page Text

Daily Summary for April 15, 2017 Units:  Metric    English   Both
« Previous Day
Next Day »
Daily Weekly Monthly Yearly Custom
  High: Low: Average:
Temperature: 17.9 °C 4.6 °C 12.1 °C
Dew Point: 11.8 °C 2.2 °C 6.4 °C
Humidity: 90 % 37 % 70 %
Wind Speed: 17.2 km/h 0 km/h 6 km/h
Wind Gust: 35.2 km/h - -
Wind:- - SSW
Pressure: 1028.7 hPa 1017.5 hPa -
Precipitation: 0 mm    
Historical Graphs
 
 
Tabular Data for April 15, 2017
Time Temperature Dew Point Pressure Wind Wind Speed Wind Gust Humidity Rainfall Rate (Hourly)
00:00 8.2 °C 2.8 °C 1028.3 hPa WSW 0.2 km/h 1.9 km/h 69 % 0 mm
00:05 8.1 °C 2.9 °C 1028.3 hPa WSW 0.2 km/h 1.9 km/h 70 % 0 mm
00:10 7.9 °C 2.8 °C 1028.3 hPa WSW 0.2 km/h 1.6 km/h 70 % 0 mm
00:15 7.8 °C 2.9 °C 1028.3 hPa Calm     71 % 0 mm
00:20 7.7 °C 2.8 °C 1028.3 hPa Calm     71 % 0 mm
00:25 7.6 °C 2.9 °C 1028.3 hPa Calm     72 % 0 mm
00:30 7.4 °C 2.7 °C 1028.7 hPa Calm     72 % 0 mm
00:35 7.3 °C 2.6 °C 1028.3 hPa WSW 0.2 km/h 1.9 km/h 72 % 0 mm
00:40 7.2 °C 2.7 °C 1028.3 hPa Calm     73 % 0 mm
00:45 7.1 °C 2.7 °C 1028.3 hPa Calm     74 % 0 mm
00:50 6.9 °C 2.6 °C 1028.3 hPa Calm     74 % 0 mm
00:55 6.8 °C 2.5 °C 1028.3 hPa Calm     74 % 0 mm
01:00 6.7 °C 2.6 °C 1028.3 hPa Calm     75 % 0 mm
01:05 6.6 °C 2.4 °C 1028.3 hPa Calm     75 % 0 mm
01:10 6.5 °C 2.4 °C 1028.3 hPa Calm     75 % 0 mm
01:15 6.4 °C 2.4 °C 1028.3 hPa Calm     76 % 0 mm
01:21 6.3 °C 2.4 °C 1028.3 hPa Calm     76 % 0 mm
01:26 6.2 °C 2.3 °C 1028.3 hPa Calm     76 % 0 mm
01:31 6.2 °C 2.4 °C 1028.3 hPa Calm     77 % 0 mm
01:36 6.1 °C 2.3 °C 1028.3 hPa Calm     77 % 0 mm
01:41 5.9 °C 2.4 °C 1028.3 hPa Calm     78 % 0 mm
01:46 5.8 °C 2.3 °C 1028.3 hPa Calm     78 % 0 mm
01:51 5.8 °C 2.2 °C 1028.3 hPa Calm     78 % 0 mm
01:56 5.7 °C 2.4 °C 1028.3 hPa Calm     79 % 0 mm
02:01 5.6 °C 2.3 °C 1028.3 hPa Calm     79 % 0 mm
02:06 5.6 °C 2.2 °C 1028.3 hPa Calm     79 % 0 mm
02:11 5.5 °C 2.2 °C 1028 hPa Calm     79 % 0 mm
02:16 5.4 °C 2.3 °C 1028.3 hPa Calm     80 % 0 mm
02:21 5.4 °C 2.4 °C 1028 hPa Calm     81 % 0 mm
02:26 5.3 °C 2.5 °C 1028.3 hPa Calm   1.9 km/h 82 % 0 mm
02:31 5.3 °C 2.6 °C 1028.3 hPa Calm     83 % 0 mm
02:36 5.3 °C 2.6 °C 1028.3 hPa Calm     83 % 0 mm
02:41 5.2 °C 2.6 °C 1028 hPa WSW 0.3 km/h 1.9 km/h 83 % 0 mm
02:47 5.2 °C 2.7 °C 1028 hPa Calm   1.9 km/h 84 % 0 mm
02:52 5.2 °C 2.7 °C 1028.3 hPa WSW 0.3 km/h 1.6 km/h 84 % 0 mm
02:57 5.2 °C 2.7 °C 1028 hPa Calm     84 % 0 mm
03:02 5.2 °C 2.7 °C 1028 hPa Calm     84 % 0 mm
03:07 5.2 °C 2.7 °C 1028 hPa Calm     84 % 0 mm
03:12 5.2 °C 2.7 °C 1028 hPa Calm     84 % 0 mm
03:17 5.2 °C 2.7 °C 1028 hPa Calm     84 % 0 mm
03:22 5.3 °C 2.8 °C 1028 hPa Calm     84 % 0 mm
03:27 5.3 °C 2.8 °C 1028 hPa Calm   1.6 km/h 84 % 0 mm
03:32 5.3 °C 2.8 °C 1028 hPa Calm   1.6 km/h 84 % 0 mm
03:37 5.3 °C 2.8 °C 1028 hPa WSW 0.2 km/h 1.6 km/h 84 % 0 mm
03:42 5.3 °C 2.8 °C 1028 hPa Calm   1.6 km/h 84 % 0 mm
03:47 5.4 °C 2.9 °C 1028 hPa Calm   1.6 km/h 84 % 0 mm
03:52 5.4 °C 2.9 °C 1028 hPa Calm   3.2 km/h 84 % 0 mm
03:57 5.4 °C 2.9 °C 1028 hPa Calm   1.9 km/h 84 % 0 mm
04:02 5.5 °C 3 °C 1028 hPa WSW 0.6 km/h 3.7 km/h 84 % 0 mm
04:07 5.6 °C 3.2 °C 1028 hPa Calm   1.9 km/h 85 % 0 mm
04:12 5.6 °C 3.1 °C 1028 hPa Calm     84 % 0 mm
04:17 5.6 °C 3.1 °C 1028 hPa Calm     84 % 0 mm
04:22 5.6 °C 3.1 °C 1028 hPa Calm     84 % 0 mm
04:27 5.6 °C 3.1 °C 1028 hPa Calm     84 % 0 mm
04:32 5.5 °C 3 °C 1028 hPa Calm     84 % 0 mm
04:37 5.5 °C 2.8 °C 1028 hPa Calm     83 % 0 mm
04:42 5.4 °C 2.8 °C 1028 hPa Calm     83 % 0 mm
04:47 5.4 °C 2.8 °C 1028 hPa Calm     83 % 0 mm
04:52 5.4 °C 2.7 °C 1027.7 hPa Calm     83 % 0 mm
04:57 5.3 °C 2.7 °C 1027.7 hPa Calm     83 % 0 mm
05:02 5.3 °C 2.8 °C 1027.7 hPa Calm     84 % 0 mm
05:07 5.3 °C 2.8 °C 1027.7 hPa Calm   1.9 km/h 84 % 0 mm
05:13 5.2 °C 2.7 °C 1027.7 hPa Calm   1.9 km/h 84 % 0 mm
05:18 5.2 °C 2.7 °C 1027.7 hPa WSW 0.3 km/h 3.7 km/h 84 % 0 mm
05:23 5.1 °C 2.6 °C 1027.7 hPa Calm   3.7 km/h 84 % 0 mm
05:28 5.1 °C 2.8 °C 1027.7 hPa Calm     85 % 0 mm
05:33 5.1 °C 2.7 °C 1027.7 hPa Calm     85 % 0 mm
05:38 5.1 °C 2.7 °C 1027.7 hPa WSW 0.2 km/h 1.9 km/h 85 % 0 mm
05:43 5 °C 2.5 °C 1027.7 hPa Calm     84 % 0 mm
05:48 4.9 °C 2.4 °C 1028 hPa WSW 0.6 km/h 1.9 km/h 84 % 0 mm
05:53 4.9 °C 2.6 °C 1028 hPa Calm   1.9 km/h 85 % 0 mm
05:58 4.8 °C 2.5 °C 1028 hPa Calm     85 % 0 mm
06:03 4.8 °C 2.5 °C 1028 hPa Calm     85 % 0 mm
06:08 4.8 °C 2.4 °C 1027.7 hPa Calm     85 % 0 mm
06:13 4.7 °C 2.6 °C 1027.7 hPa Calm     86 % 0 mm
06:18 4.7 °C 2.6 °C 1027.7 hPa Calm     86 % 0 mm
06:23 4.7 °C 2.5 °C 1027.7 hPa Calm   1.9 km/h 86 % 0 mm
06:28 4.7 °C 2.5 °C 1027.7 hPa WSW 0.3 km/h 1.9 km/h 86 % 0 mm
06:33 4.6 °C 2.4 °C 1027.7 hPa Calm     86 % 0 mm
06:38 4.6 °C 2.4 °C 1027.7 hPa WSW 1.1 km/h 3.7 km/h 86 % 0 mm
06:43 4.6 °C 2.6 °C 1027.7 hPa WSW 1.3 km/h 3.7 km/h 87 % 0 mm
06:44 4.7 °C 2.7 °C 1027.7 hPa WSW 0.2 km/h 1.9 km/h 87 % 0 mm
06:49 4.8 °C 2.9 °C 1028 hPa SW 1 km/h 3.7 km/h 88 % 0 mm
06:54 4.9 °C 3.1 °C 1027.7 hPa Calm   3.2 km/h 88 % 0 mm
06:59 5.1 °C 3.4 °C 1028 hPa SW 1 km/h 4.8 km/h 89 % 0 mm
07:05 5.3 °C 3.6 °C 1028 hPa SW 1 km/h 3.7 km/h 89 % 0 mm
07:10 5.6 °C 4.1 °C 1028 hPa SW 0.2 km/h 1.6 km/h 90 % 0 mm
07:15 5.8 °C 4.3 °C 1028 hPa SW 0.3 km/h 1.9 km/h 90 % 0 mm
07:20 6.2 °C 4.7 °C 1028 hPa SW 0.2 km/h 1.9 km/h 90 % 0 mm
07:25 6.4 °C 4.9 °C 1028 hPa SW 0.3 km/h 1.9 km/h 90 % 0 mm
07:30 6.8 °C 5.3 °C 1028 hPa SW 0.8 km/h 1.9 km/h 90 % 0 mm
07:35 7.2 °C 5.5 °C 1028.3 hPa South 2.4 km/h 5.6 km/h 89 % 0 mm
07:40 7.6 °C 5.7 °C 1028.3 hPa South 0.3 km/h 3.7 km/h 88 % 0 mm
07:45 7.9 °C 5.8 °C 1028.3 hPa South 3.9 km/h 7.4 km/h 87 % 0 mm
07:50 8.3 °C 6.1 °C 1028.3 hPa SSW 1.1 km/h 5.6 km/h 86 % 0 mm
07:55 8.7 °C 6.3 °C 1028.3 hPa South 2.9 km/h 6.4 km/h 85 % 0 mm
08:00 9.1 °C 6.2 °C 1028.3 hPa South 1.9 km/h 6.4 km/h 82 % 0 mm
08:05 9.6 °C 6.4 °C 1028.3 hPa South 1 km/h 3.2 km/h 81 % 0 mm
08:07 9.7 °C 6.4 °C 1028.3 hPa WSW 3.7 km/h 5.6 km/h 80 % 0 mm
08:12 10.2 °C 6.3 °C 1028.3 hPa SSW 2.9 km/h 9.3 km/h 77 % 0 mm
08:17 10.5 °C 6.3 °C 1028.3 hPa SW 7.1 km/h 11.1 km/h 75 % 0 mm
08:22 10.9 °C 6.4 °C 1028.3 hPa SW 7.1 km/h 9.3 km/h 74 % 0 mm
08:27 11.3 °C 6.7 °C 1028.3 hPa South 4.2 km/h 11.1 km/h 73 % 0 mm
08:32 11.7 °C 6.8 °C 1028 hPa SSW 4.8 km/h 9.3 km/h 72 % 0 mm
08:37 12.1 °C 6.7 °C 1028.3 hPa SW 5.3 km/h 9.3 km/h 70 % 0 mm
08:42 12.3 °C 6.3 °C 1028 hPa WSW 7.1 km/h 12.9 km/h 67 % 0 mm
08:47 12.7 °C 6.5 °C 1028 hPa SSW 6.6 km/h 11.1 km/h 66 % 0 mm
08:52 13 °C 6.1 °C 1028 hPa SW 7.2 km/h 13 km/h 63 % 0 mm
08:57 13.4 °C 6 °C 1028 hPa SSW 10.6 km/h 13 km/h 61 % 0 mm
09:02 13.7 °C 6.1 °C 1028 hPa SW 10.1 km/h 12.9 km/h 60 % 0 mm
09:07 14 °C 6.3 °C 1028 hPa SSW 11.1 km/h 17.7 km/h 60 % 0 mm
09:12 14.1 °C 5.9 °C 1028 hPa SW 11.3 km/h 19.3 km/h 58 % 0 mm
09:17 14.3 °C 5.9 °C 1028 hPa SSW 12.9 km/h 22.5 km/h 57 % 0 mm
09:22 14.4 °C 6 °C 1028 hPa SSW 12.9 km/h 22.5 km/h 57 % 0 mm
09:27 14.6 °C 5.9 °C 1028 hPa SSW 8 km/h 27.4 km/h 56 % 0 mm
09:32 14.8 °C 6.7 °C 1028 hPa SSW 11.3 km/h 14.5 km/h 58 % 0 mm
09:37 15.2 °C 6.5 °C 1028 hPa South 3.5 km/h 7.4 km/h 56 % 0 mm
09:42 15.6 °C 6.1 °C 1028 hPa SSW 4.8 km/h 11.3 km/h 53 % 0 mm
09:47 16.2 °C 7.2 °C 1027.7 hPa SSW 6.3 km/h 9.3 km/h 55 % 0 mm
09:52 16.6 °C 6.1 °C 1027.7 hPa SSW 9.7 km/h 24.1 km/h 50 % 0 mm
09:57 16.7 °C 6.2 °C 1027.7 hPa SSW 9 km/h 17.7 km/h 50 % 0 mm
10:02 16.7 °C 6.2 °C 1027.7 hPa SE 10.9 km/h 20.4 km/h 50 % 0 mm
10:07 16.8 °C 6.3 °C 1027.7 hPa SSW 11.3 km/h 22.5 km/h 50 % 0 mm
10:12 16.9 °C 5.8 °C 1027.7 hPa SSW 9.7 km/h 22.5 km/h 48 % 0 mm
10:17 16.9 °C 5.8 °C 1027.7 hPa South 10 km/h 20.4 km/h 48 % 0 mm
10:22 17.1 °C 6.6 °C 1027.7 hPa SSW 9.7 km/h 11.3 km/h 50 % 0 mm
10:27 17.1 °C 5.7 °C 1027.7 hPa SSW 8 km/h 20.9 km/h 47 % 0 mm
10:32 17.2 °C 5.1 °C 1027.7 hPa SSW 9.7 km/h 16.7 km/h 45 % 0 mm
10:37 17.2 °C 4.8 °C 1027.7 hPa SW 13 km/h 13 km/h 44 % 0 mm
10:42 17.3 °C 3.9 °C 1027.7 hPa SW 13.4 km/h 18.5 km/h 41 % 0 mm
10:47 17.5 °C 4.4 °C 1027.7 hPa SSW 7.4 km/h 18.5 km/h 42 % 0 mm
10:52 17.7 °C 4.2 °C 1027.7 hPa WNW 8.9 km/h 20.4 km/h 41 % 0 mm
10:57 17.8 °C 4 °C 1027.3 hPa SW 11.9 km/h 14.5 km/h 40 % 0 mm
11:02 17.7 °C 4.3 °C 1027.3 hPa SW 11.1 km/h 14.8 km/h 41 % 0 mm
11:07 17.7 °C 4.3 °C 1027.3 hPa SSW 7.4 km/h 18.5 km/h 41 % 0 mm
11:12 17.7 °C 4.6 °C 1027.3 hPa SSW 8 km/h 11.3 km/h 42 % 0 mm
11:17 17.7 °C 4.6 °C 1027.3 hPa South 9.3 km/h 14.8 km/h 42 % 0 mm
11:22 17.7 °C 4.2 °C 1027 hPa SSW 8.2 km/h 13 km/h 41 % 0 mm
11:27 17.8 °C 4.3 °C 1027 hPa SW 11.3 km/h 24.1 km/h 41 % 0 mm
11:32 17.8 °C 3.6 °C 1027 hPa SSW 8 km/h 24.1 km/h 39 % 0 mm
11:37 17.8 °C 3.3 °C 1027 hPa SSW 11.3 km/h 19.3 km/h 38 % 0 mm
11:42 17.9 °C 3.8 °C 1027 hPa SSW 4.8 km/h 14.5 km/h 39 % 0 mm
11:47 17.9 °C 3.7 °C 1027 hPa South 11.3 km/h 16.1 km/h 39 % 0 mm
11:52 17.8 °C 3.7 °C 1026.6 hPa South 4.8 km/h 14.5 km/h 39 % 0 mm
11:57 17.6 °C 3.4 °C 1026.6 hPa SSW 10.9 km/h 22.2 km/h 39 % 0 mm
12:02 17.5 °C 3.7 °C 1026.6 hPa South 10.1 km/h 16.7 km/h 40 % 0 mm
12:07 17.4 °C 3.3 °C 1026.6 hPa SSW 12.7 km/h 18.5 km/h 39 % 0 mm
12:12 17.2 °C 3.4 °C 1026.3 hPa SW 9.2 km/h 12.9 km/h 40 % 0 mm
12:17 17 °C 2.9 °C 1026.3 hPa SSE 7.9 km/h 14.8 km/h 39 % 0 mm
12:22 17.1 °C 3 °C 1026.3 hPa SSW 7.6 km/h 11.3 km/h 39 % 0 mm
12:27 17.2 °C 3.8 °C 1026 hPa SSE 7.7 km/h 11.3 km/h 41 % 0 mm
12:32 17.3 °C 3.2 °C 1026 hPa SSW 7.9 km/h 13 km/h 39 % 0 mm
12:37 17.4 °C 2.9 °C 1026 hPa SW 8.7 km/h 11.1 km/h 38 % 0 mm
12:42 17.6 °C 3.1 °C 1026 hPa South 5.1 km/h 13 km/h 38 % 0 mm
12:47 17.7 °C 2.8 °C 1026 hPa SSW 6.8 km/h 14.8 km/h 37 % 0 mm
12:53 17.6 °C 2.7 °C 1026 hPa SSW 10.9 km/h 16.7 km/h 37 % 0 mm
12:58 17.3 °C 3.6 °C 1025.6 hPa South 6.9 km/h 11.1 km/h 40 % 0 mm
13:03 17.2 °C 3.8 °C 1025.6 hPa SSW 6.8 km/h 11.3 km/h 41 % 0 mm
13:08 17.2 °C 4.1 °C 1025.3 hPa South 7.7 km/h 18.5 km/h 42 % 0 mm
13:13 17.3 °C 4.2 °C 1025.6 hPa SSE 7.9 km/h 11.3 km/h 42 % 0 mm
13:18 17.2 °C 3.8 °C 1025.6 hPa SSW 9.2 km/h 16.7 km/h 41 % 0 mm
13:23 17.2 °C 4.4 °C 1025.6 hPa South 15 km/h 18.5 km/h 43 % 0 mm
13:28 17.1 °C 4.4 °C 1025.3 hPa SSW 5.1 km/h 11.1 km/h 43 % 0 mm
13:33 17.2 °C 4.5 °C 1025.3 hPa SSW 7.6 km/h 11.3 km/h 43 % 0 mm
13:38 17.3 °C 4.9 °C 1025.3 hPa SSW 12.4 km/h 18.5 km/h 44 % 0 mm
13:43 17.2 °C 5.4 °C 1025.3 hPa South 17.2 km/h 22.2 km/h 46 % 0 mm
13:48 16.9 °C 5.5 °C 1025.3 hPa South 13.4 km/h 25.9 km/h 47 % 0 mm
13:53 16.7 °C 5.6 °C 1025.6 hPa SW 15.9 km/h 25.7 km/h 48 % 0 mm
13:58 16.6 °C 6.1 °C 1025.6 hPa South 5.1 km/h 14.5 km/h 50 % 0 mm
14:03 16.4 °C 6 °C 1025.3 hPa SSW 8 km/h 18.5 km/h 50 % 0 mm
14:08 16.4 °C 6.5 °C 1025.3 hPa SW 8 km/h 20.9 km/h 52 % 0 mm
14:13 16.4 °C 6.5 °C 1024.9 hPa SSW 11.1 km/h 16.7 km/h 52 % 0 mm
14:18 16.4 °C 7.1 °C 1024.6 hPa South 7.6 km/h 18.5 km/h 54 % 0 mm
14:23 16.6 °C 7.5 °C 1024.6 hPa South 9.7 km/h 14.8 km/h 55 % 0 mm
14:28 16.7 °C 7.6 °C 1024.6 hPa South 8.7 km/h 13 km/h 55 % 0 mm
14:33 16.7 °C 7.6 °C 1024.3 hPa South 10.5 km/h 11.1 km/h 55 % 0 mm
14:38 16.7 °C 7.6 °C 1024.3 hPa SW 17.1 km/h 19.3 km/h 55 % 0 mm
14:43 16.6 °C 7.5 °C 1024.3 hPa SSW 13 km/h 18.5 km/h 55 % 0 mm
14:48 16.6 °C 7.7 °C 1024.3 hPa SSE 8.2 km/h 18.5 km/h 56 % 0 mm
14:53 16.6 °C 7.2 °C 1023.9 hPa SSW 6.9 km/h 13 km/h 54 % 0 mm
14:58 16.5 °C 7.4 °C 1023.9 hPa South 8.7 km/h 17.7 km/h 55 % 0 mm
15:03 16.4 °C 7.1 °C 1023.9 hPa South 11.6 km/h 14.8 km/h 54 % 0 mm
15:08 16.3 °C 6.7 °C 1023.9 hPa South 8.9 km/h 16.7 km/h 53 % 0 mm
15:13 16.1 °C 6.8 °C 1023.9 hPa SSE 10.6 km/h 14.8 km/h 54 % 0 mm
15:18 16.1 °C 7 °C 1023.6 hPa SW 7.2 km/h 18.5 km/h 55 % 0 mm
15:23 16.2 °C 7.7 °C 1023.2 hPa SW 4.8 km/h 7.4 km/h 57 % 0 mm
15:28 16.4 °C 8.2 °C 1023.2 hPa South 6 km/h 11.1 km/h 58 % 0 mm
15:33 16.7 °C 8.2 °C 1023.2 hPa ESE 7.6 km/h 13 km/h 57 % 0 mm
15:38 16.8 °C 8.2 °C 1022.9 hPa SSW 7.7 km/h 12.9 km/h 57 % 0 mm
15:43 16.8 °C 8.2 °C 1022.9 hPa SSW 10.3 km/h 11.3 km/h 57 % 0 mm
15:48 16.7 °C 8.4 °C 1022.6 hPa SSW 2.6 km/h 11.1 km/h 58 % 0 mm
15:53 16.8 °C 8.2 °C 1022.6 hPa SSW 4.8 km/h 20.4 km/h 57 % 0 mm
15:56 16.8 °C 8.8 °C 1022.6 hPa SSW 8.4 km/h 16.7 km/h 59 % 0 mm
16:01 16.9 °C 8.6 °C 1022.6 hPa SSW 10 km/h 16.7 km/h 58 % 0 mm
16:07 17 °C 8.7 °C 1022.6 hPa South 10.5 km/h 18.5 km/h 58 % 0 mm
16:12 16.9 °C 8.9 °C 1022.6 hPa South 3.4 km/h 9.7 km/h 59 % 0 mm
16:17 16.9 °C 9.1 °C 1022.2 hPa South 6.4 km/h 13 km/h 60 % 0 mm
16:22 16.8 °C 8.8 °C 1022.2 hPa SSW 8.5 km/h 22.5 km/h 59 % 0 mm
16:27 16.8 °C 8.9 °C 1022.2 hPa SW 7.9 km/h 16.7 km/h 60 % 0 mm
16:32 16.7 °C 9.1 °C 1022.2 hPa SW 11.3 km/h 19.3 km/h 61 % 0 mm
16:37 16.5 °C 8.9 °C 1021.9 hPa SW 11.1 km/h 27.8 km/h 61 % 0 mm
16:42 16.3 °C 9 °C 1021.9 hPa SSW 7.2 km/h 22.2 km/h 62 % 0 mm
16:47 16.2 °C 9.1 °C 1021.9 hPa SSW 10.6 km/h 22.2 km/h 63 % 0 mm
16:52 16.1 °C 9.3 °C 1021.9 hPa South 14.2 km/h 30.6 km/h 64 % 0 mm
16:57 15.9 °C 9.1 °C 1021.6 hPa SSW 12.1 km/h 16.7 km/h 64 % 0 mm
17:02 15.9 °C 9.3 °C 1021.6 hPa SSE 8.2 km/h 18.5 km/h 65 % 0 mm
17:07 15.7 °C 9.4 °C 1021.6 hPa South 12.4 km/h 24.1 km/h 66 % 0 mm
17:12 15.6 °C 9.4 °C 1021.6 hPa South 16.3 km/h 24.1 km/h 67 % 0 mm
17:17 15.4 °C 9.3 °C 1021.6 hPa SW 12.2 km/h 24.1 km/h 67 % 0 mm
17:22 15.3 °C 9.4 °C 1021.6 hPa SSW 10.5 km/h 16.7 km/h 68 % 0 mm
17:27 15.3 °C 9.4 °C 1021.6 hPa WSW 11.1 km/h 35.2 km/h 68 % 0 mm
17:32 15.2 °C 9.5 °C 1021.6 hPa South 8.9 km/h 14.8 km/h 69 % 0 mm
17:37 15.1 °C 9.6 °C 1021.2 hPa South 10.6 km/h 24.1 km/h 70 % 0 mm
17:42 15 °C 10 °C 1020.9 hPa SSW 5.6 km/h 13 km/h 72 % 0 mm
17:47 14.9 °C 10.1 °C 1021.2 hPa SW 12.1 km/h 20.4 km/h 73 % 0 mm
17:52 14.8 °C 10 °C 1021.2 hPa SSW 7.1 km/h 16.7 km/h 73 % 0 mm
17:57 14.7 °C 9.9 °C 1021.2 hPa South 9 km/h 18.5 km/h 73 % 0 mm
18:02 14.6 °C 10 °C 1021.2 hPa SSW 10.3 km/h 18.5 km/h 74 % 0 mm
18:07 14.5 °C 9.9 °C 1021.2 hPa SSE 11.6 km/h 19.3 km/h 74 % 0 mm
18:12 14.3 °C 9.8 °C 1021.2 hPa SSE 7.4 km/h 18.5 km/h 74 % 0 mm
18:17 14.3 °C 9.9 °C 1021.2 hPa SSW 8.4 km/h 14.8 km/h 75 % 0 mm
18:22 14.2 °C 9.8 °C 1021.2 hPa SSW 9.7 km/h 19.3 km/h 75 % 0 mm
18:27 14.2 °C 9.8 °C 1021.2 hPa South 10.8 km/h 12.9 km/h 75 % 0 mm
18:32 14.1 °C 9.7 °C 1020.9 hPa SSW 7.4 km/h 18.5 km/h 75 % 0 mm
18:37 14.1 °C 9.7 °C 1020.9 hPa SSW 12.9 km/h 22.5 km/h 75 % 0 mm
18:42 14 °C 9.8 °C 1020.9 hPa South 9.7 km/h 20.4 km/h 76 % 0 mm
18:47 14 °C 9.8 °C 1020.9 hPa South 14.3 km/h 25.9 km/h 76 % 0 mm
18:52 13.9 °C 10 °C 1020.9 hPa SSW 11.3 km/h 24.1 km/h 77 % 0 mm
18:57 13.9 °C 10 °C 1020.9 hPa South 10.6 km/h 18.5 km/h 77 % 0 mm
19:02 13.9 °C 10.1 °C 1020.9 hPa SW 10 km/h 20.4 km/h 78 % 0 mm
19:07 13.9 °C 10.1 °C 1020.5 hPa South 10.9 km/h 22.2 km/h 78 % 0 mm
19:12 13.9 °C 10.1 °C 1020.5 hPa South 10 km/h 16.7 km/h 78 % 0 mm
19:17 13.8 °C 10.3 °C 1020.5 hPa SSW 4.2 km/h 9.3 km/h 79 % 0 mm
19:22 13.8 °C 10.3 °C 1020.5 hPa South 7.9 km/h 11.1 km/h 79 % 0 mm
19:28 13.8 °C 10.3 °C 1020.9 hPa SSW 9.5 km/h 18.5 km/h 79 % 0 mm
19:32 13.8 °C 10.3 °C 1020.5 hPa SW 5.1 km/h 13 km/h 79 % 0 mm
19:37 13.8 °C 10.4 °C 1020.5 hPa SSW 11.3 km/h 20.4 km/h 80 % 0 mm
19:42 13.9 °C 10.5 °C 1020.5 hPa SW 10.1 km/h 27.4 km/h 80 % 0 mm
19:47 13.9 °C 10.5 °C 1020.2 hPa SSW 8.7 km/h 13 km/h 80 % 0 mm
19:52 13.9 °C 10.5 °C 1019.9 hPa SSW 10.6 km/h 20.4 km/h 80 % 0 mm
19:57 13.9 °C 10.6 °C 1019.9 hPa South 8 km/h 11.3 km/h 80 % 0 mm
20:02 13.9 °C 10.7 °C 1019.9 hPa South 10 km/h 16.7 km/h 81 % 0 mm
20:07 13.9 °C 10.7 °C 1019.5 hPa SSW 8 km/h 18.5 km/h 81 % 0 mm
20:12 13.9 °C 10.7 °C 1019.9 hPa SW 9.8 km/h 14.8 km/h 81 % 0 mm
20:18 13.8 °C 10.8 °C 1019.5 hPa SW 11.1 km/h 22.2 km/h 82 % 0 mm
20:23 13.8 °C 10.8 °C 1019.5 hPa SSW 7.1 km/h 13 km/h 82 % 0 mm
20:28 13.8 °C 10.8 °C 1019.9 hPa SSW 11.6 km/h 18.5 km/h 82 % 0 mm
20:32 13.8 °C 10.8 °C 1019.5 hPa SSW 7.1 km/h 14.8 km/h 82 % 0 mm
20:37 13.8 °C 10.8 °C 1019.5 hPa South 6.9 km/h 11.1 km/h 82 % 0 mm
20:43 13.8 °C 10.9 °C 1019.5 hPa SW 8.5 km/h 11.3 km/h 83 % 0 mm
20:48 13.8 °C 11 °C 1019.2 hPa SSW 5.5 km/h 16.7 km/h 83 % 0 mm
20:53 13.9 °C 11.2 °C 1019.2 hPa South 6.8 km/h 16.7 km/h 84 % 0 mm
20:58 13.9 °C 11.3 °C 1019.2 hPa SSW 13.2 km/h 20.4 km/h 84 % 0 mm
21:03 14 °C 11.3 °C 1019.2 hPa SW 7.7 km/h 13 km/h 84 % 0 mm
21:08 14.1 °C 11.4 °C 1018.8 hPa SW 9.7 km/h 22.2 km/h 84 % 0 mm
21:13 14.2 °C 11.6 °C 1018.8 hPa South 13.5 km/h 31.5 km/h 84 % 0 mm
21:18 14.3 °C 11.8 °C 1018.8 hPa South 15.8 km/h 24.1 km/h 85 % 0 mm
21:23 14.4 °C 11.7 °C 1018.8 hPa SSW 11.9 km/h 27.8 km/h 84 % 0 mm
21:28 14.4 °C 11.7 °C 1018.8 hPa South 10.8 km/h 20.4 km/h 84 % 0 mm
21:33 14.4 °C 11.8 °C 1018.8 hPa SSW 9.8 km/h 20.4 km/h 84 % 0 mm
21:38 14.4 °C 11.8 °C 1018.5 hPa SW 13.7 km/h 18.5 km/h 84 % 0 mm
21:43 14.4 °C 11.8 °C 1018.5 hPa SSW 13 km/h 24.1 km/h 84 % 0 mm
21:48 14.4 °C 11.7 °C 1018.5 hPa SSW 5.1 km/h 13 km/h 84 % 0 mm
21:53 14.4 °C 11.7 °C 1018.5 hPa SW 7.1 km/h 20.9 km/h 84 % 0 mm
21:58 14.3 °C 11.7 °C 1018.5 hPa South 12.4 km/h 20.9 km/h 84 % 0 mm
22:03 14.3 °C 11.6 °C 1018.5 hPa WSW 10.6 km/h 22.2 km/h 84 % 0 mm
22:08 14.2 °C 11.7 °C 1018.5 hPa SSW 5.5 km/h 20.4 km/h 85 % 0 mm
22:13 14.2 °C 11.7 °C 1018.5 hPa SW 9.3 km/h 14.5 km/h 85 % 0 mm
22:18 14.1 °C 11.6 °C 1018.5 hPa South 11.7 km/h 18.5 km/h 85 % 0 mm
22:23 14.1 °C 11.6 °C 1018.5 hPa SSW 8.2 km/h 18.5 km/h 85 % 0 mm
22:28 14 °C 11.7 °C 1018.2 hPa SSW 6.6 km/h 16.7 km/h 86 % 0 mm
22:33 13.9 °C 11.7 °C 1018.2 hPa SSW 9.5 km/h 18.5 km/h 86 % 0 mm
22:38 13.9 °C 11.6 °C 1018.2 hPa SW 6 km/h 9.3 km/h 86 % 0 mm
22:43 13.8 °C 11.6 °C 1018.2 hPa SSW 8.9 km/h 11.3 km/h 86 % 0 mm
22:48 13.8 °C 11.7 °C 1018.2 hPa South 7.2 km/h 14.8 km/h 87 % 0 mm
22:53 13.7 °C 11.6 °C 1018.2 hPa SSW 6.9 km/h 13 km/h 87 % 0 mm
22:58 13.7 °C 11.6 °C 1018.2 hPa South 7.7 km/h 12.9 km/h 87 % 0 mm
23:03 13.6 °C 11.7 °C 1018.2 hPa South 6.4 km/h 9.3 km/h 88 % 0 mm
23:08 13.6 °C 11.6 °C 1017.8 hPa South 5.8 km/h 11.3 km/h 88 % 0 mm
23:13 13.5 °C 11.6 °C 1017.8 hPa SSW 9 km/h 11.3 km/h 88 % 0 mm
23:18 13.4 °C 11.5 °C 1017.5 hPa SSW 6.1 km/h 13 km/h 88 % 0 mm
23:23 13.4 °C 11.7 °C 1017.5 hPa SSW 6.1 km/h 9.3 km/h 89 % 0 mm
23:29 13.4 °C 11.6 °C 1017.5 hPa WSW 2.1 km/h 5.6 km/h 89 % 0 mm
23:34 13.4 °C 11.6 °C 1017.5 hPa SSW 5 km/h 9.3 km/h 89 % 0 mm
23:39 13.3 °C 11.6 °C 1017.5 hPa South 5.5 km/h 7.4 km/h 89 % 0 mm
23:44 13.3 °C 11.7 °C 1017.5 hPa SW 1.6 km/h 9.3 km/h 90 % 0 mm
23:49 13.3 °C 11.7 °C 1017.5 hPa SSW 2.4 km/h 11.1 km/h 90 % 0 mm
23:54 13.3 °C 11.7 °C 1017.5 hPa SSW 2.9 km/h 7.4 km/h 90 % 0 mm
23:59 13.3 °C 11.7 °C 1017.5 hPa SSW 6.4 km/h 6.4 km/h 90 % 0 mm
Crab Meadow Weather
Compliments of Weather Underground - 3 mb

Script developed by  Jim McMurry - jmcmurry@mwt.net Adapted for the template by  Wim van der Kuil - Leuven-Template.eu

Extremes: In Wyndham, Australia, the temperature reached 90 degrees F for 333 days in 1946.